HST
1 20580U 90037B   24199.23254028  .00007760  00000-0  36059-3 0  9991
2 20580  28.4676 143.7679 0002462   6.1171 353.9452 15.18119914681867
ISS (ZARYA)
1 25544U 98067A   24199.39303534  .00020587  00000-0  36774-3 0  9997
2 25544  51.6386 165.6954 0010420  76.0087   4.5170 15.49952467463239
CXO
1 25867U 99040B   24199.59791054  .00000580  00000-0  00000-0 0  9998
2 25867  41.7638 151.1853 8857581 298.2798   0.4846  0.37808948 14677